Esther, Alberta

10:02 AM MST on December 18, 2017 (GMT -0700)
Esther

Weather History for CWGY - September, 2013

Change the Weather History Date:

Monday, September 23, 2013

  Actual Average Record
Temperature  
Mean Temperature 56 °F -  
Max Temperature 69 °F - - ()
Min Temperature 44 °F - - ()
Degree Days  
Heating Degree Days 8    
Growing Degree Days 6 (Base 50)    
Moisture  
Dew Point 34 °F    
Average Humidity 46    
Maximum Humidity 75    
Minimum Humidity 17    
Precipitation  
Precipitation 0.00 in - - ()
Sea Level Pressure  
Sea Level Pressure 29.53 in    
Wind  
Wind Speed 12 mph ()    
Max Wind Speed 20 mph    
Max Gust Speed 17 mph    
T = Trace of Precipitation, MM = Missing Value Source: Averaged Metar Reports

Daily Weather History Graph

Daily Weather History Graph

Search for Another Location

Airport or City:

Trip Planner

Search our weather history database for the weather conditions in past years. The results will help you decide how hot, cold, wet, or windy it might be!

Date:

Astronomy

Sep. 23, 2013 Rise Set
Actual Time 7:09 AM MDT 7:15 PM MDT
Civil Twilight 6:35 AM MDT 7:49 PM MDT
Nautical Twilight 5:56 AM MDT 8:28 PM MDT
Astronomical Twilight 5:14 AM MDT 9:09 PM MDT
Moon 9:16 PM MDT (9/23) 12:05 PM MDT (9/23)
Length of Visible Light 13h 13m
Length of Day
12h 06m
Waning Gibbous, 81% of the Moon is Illuminated
Sep 23
Waning Gibbous
Sep 26
Last Quarter
Oct 4
New
Oct 11
First Quarter
Oct 18
Full

Hourly Weather History & Observations

Time (MDT) Temp. Windchill Dew Point Humidity Pressure Visibility Wind Dir Wind Speed Gust Speed Precip Events Conditions
12:00 AM 53 °F - 36 °F 41% 29.45 in - South 16.1 mph - -  
12:00 AM 53.2 °F - 36.3 °F 53% 29.45 in - South 16.1 mph - N/A   Unknown
1:00 AM 51.3 °F - 35.8 °F 55% 29.46 in - South 13.8 mph - N/A   Unknown
2:00 AM 50.4 °F - 35.2 °F 56% 29.46 in - South 15.0 mph - N/A   Unknown
3:00 AM 49.1 °F - 36.1 °F 61% 29.46 in - South 12.7 mph - N/A   Unknown
4:00 AM 47.5 °F - 36.7 °F 66% 29.46 in - South 12.7 mph - N/A   Unknown
5:00 AM 45.7 °F 38.8 °F 36.5 °F 70% 29.47 in - South 16.1 mph - N/A   Unknown
6:00 AM 45 °F - 37 °F 65% 29.48 in - South 13.8 mph - -  
6:00 AM 44.8 °F 38.3 °F 37.0 °F 74% 29.48 in - South 13.8 mph - N/A   Unknown
7:00 AM 44.6 °F 36.6 °F 37.2 °F 75% 29.50 in - South 19.6 mph - N/A   Unknown
8:00 AM 46.2 °F 39.3 °F 37.4 °F 71% 29.50 in - South 17.3 mph - N/A   Unknown
9:00 AM 51.8 °F - 38.3 °F 60% 29.50 in - SSW 12.7 mph - N/A   Unknown
10:00 AM 57.6 °F - 36.7 °F 46% 29.49 in - SW 15.0 mph - N/A   Unknown
11:00 AM 61.7 °F - 34.9 °F 37% 29.51 in - WSW 15.0 mph - N/A   Unknown
12:00 PM 63 °F - 34 °F 22% 29.52 in - West 12.7 mph - -  
12:00 PM 63.3 °F - 33.6 °F 33% 29.52 in - West 12.7 mph - N/A   Unknown
1:00 PM 65.8 °F - 32.9 °F 29% 29.53 in - West 11.5 mph 17.3 mph N/A   Unknown
2:00 PM 65.1 °F - 33.6 °F 31% 29.55 in - WSW 12.7 mph - N/A   Unknown
3:00 PM 66.7 °F - 31.8 °F 27% 29.56 in - WNW 11.5 mph - N/A   Unknown
4:00 PM 67.6 °F - 30.6 °F 25% 29.57 in - West 12.7 mph - N/A   Unknown
5:00 PM 69.1 °F - 29.3 °F 23% 29.58 in - West 12.7 mph - N/A   Unknown
6:00 PM 63 °F - 30 °F 17% 29.60 in - West 10.4 mph - -  
6:00 PM 63.0 °F - 29.7 °F 29% 29.60 in - West 10.4 mph - N/A   Unknown
7:00 PM 57.9 °F - 30.2 °F 35% 29.61 in - SW 5.8 mph - N/A   Unknown
8:00 PM 52.0 °F - 31.8 °F 46% 29.63 in - SSW 4.6 mph - N/A   Unknown
9:00 PM 53.8 °F - 30.7 °F 41% 29.64 in - SW 10.4 mph - N/A   Unknown
10:00 PM 50.4 °F - 31.3 °F 48% 29.65 in - SSW 8.1 mph - N/A   Unknown
11:00 PM 48.4 °F - 30.7 °F 51% 29.66 in - SSW 9.2 mph - N/A   Unknown